User: anonymous   Login
Location: Chiroubles
(46.1812°N, 4.6660°E)
Time: 19:40:42
(UTC+00:00)
Language:

SL-08 R/B - Orbit

View from above orbital plane
View from above orbital plane
View from above satellite
View from above satellite

Ground track
Ground track

The orbit data is extracted from the following two-line orbital elements,

1 27437U 02026B   20304.20968238 +.00000009 +00000-0 -64982-5 0  9994
2 27437 082.9517 235.8766 0043692 176.6803 183.4653 13.76575283925709
Epoch (UTC): 30 October 2020 05:01:56
Eccentricity: 0.0043692
inclination: 82.9517°
perigee height: 944 km
apogee height: 1008 km
right ascension of ascending node: 235.8766°
argument of perigee: 176.6803°
revolutions per day: 13.76575283
mean anomaly at epoch: 183.4653°
orbit number at epoch: 92570

The dashed part of the orbit path shows where the satellite is in the earth's shadow,  

DLR